Location: ????????
(37.9452°N, 23.1472°E)
Time: 04:51:47
(UTC+00:00)

Cosmos 1300 Rocket - Pass Details

Date: 18 April 2024
Orbit: 599 x 623 km, 82.5° (Epoch: 20 May)

Event Time Altitude Azimuth Distance (km) Brightness Sun altitude
Rises 18:06:23 0° 197° (SSW) 2,860 6.9 -11.9°
Reaches altitude 10° 18:08:38 10° 203° (SSW) 1,964 6.1 -12.3°
Maximum altitude 18:12:53 52° 280° (W) 767 4.4 -13.1°
Drops below altitude 10° 18:17:11 10° 357° (N) 1,992 6.6 -13.9°
Sets 18:19:29 0° 2° (N) 2,905 7.3 -14.3°
